Flag for Spain Weather past 2 weeks in Santander, Spain

Now
50 °F

Rain. Cloudy.


Feels Like: 45 °F
Forecast: 47 / 53 °F
Wind: 15 mph from Northwest

Location: Santander / Parayas

Current Time: Jan 30, 2015 at 2:15:47 PM

Latest Report: Jan 30, 2015 at 1:30 PM


Visibility: 2 mi

Pressure: 29.45 "Hg

Humidity: 94%

Dew point: 48 °F

Location of SantanderLocation

Historic Weather in Santander — Graph

°F

Santander temperature yesterday

Maximum temperature yesterday: 59 °F (at 5:00 PM)
Minimum temperature yesterday: 48 °F (at 7:30 AM)
Average temperature yesterday: 53 °F

Past Weeks' High & Low Weather Summary

 TemperatureHumidityPressure
High59 °F (Jan 15, 1:00 PM)100% (Jan 15, 7:30 PM)30.60 "Hg (Jan 15, 7:30 PM)
Low34 °F (Jan 24, 8:00 AM)44% (Jan 29, 12:30 PM)29.47 "Hg (Jan 30, 12:30 PM)
Average47 °F78%30.10 "Hg
* Reported Jan 15 1:00 PM — Jan 30 1:00 PM, Santander, Weather by CustomWeather, © 2014

Note: Actual official high and low records may vary slightly from our data, if they occured in-between our weather recording intervals... More about our weather records

Advertising

Santander weather history for previous 24 hours

 ConditionsComfort  
Time TempWeatherWind HumidityBarometerVisibility
1:00 PM
Jan 30
50 °FRain. Cloudy.18 mph88%29.47 "Hg3 mi
12:30 PM50 °FLight rain. Cloudy.15 mph88%29.47 "Hg4 mi
12:00 PM50 °FLight rain. Cloudy.22 mph88%29.50 "Hg4 mi
11:30 AM50 °FLight rain. Cloudy.22 mph88%29.50 "Hg4 mi
11:00 AM50 °FRain. More clouds than sun.23 mph94%29.50 "Hg4 mi
10:30 AM50 °FRain. Mostly cloudy.25 mph88%29.50 "Hg3 mi
10:00 AM50 °FRain. Mostly cloudy.23 mph88%29.50 "Hg3 mi
9:30 AM50 °FRain. Mostly cloudy.17 mph88%29.53 "Hg3 mi
9:00 AM50 °FLight rain. Cloudy.25 mph88%29.53 "Hg4 mi
8:30 AM50 °FLight rain. Overcast.28 mph88%29.53 "Hg5 mi
8:00 AM50 °FLight rain. Overcast.25 mph88%29.56 "Hg5 mi
7:30 AM50 °FRain. Overcast.23 mph88%29.56 "Hg4 mi
7:00 AM50 °FRain. Overcast.24 mph88%29.56 "Hg4 mi
6:30 AM50 °FRain. Mostly cloudy.25 mph88%29.56 "Hg3 mi
6:00 AM50 °FRain. Mostly cloudy.23 mph88%29.56 "Hg3 mi
5:30 AM50 °FLight rain. Overcast.25 mph88%29.59 "Hg5 mi
11:00 PM
Jan 29
54 °FPartly cloudy.41 mph94%29.56 "Hg2 mi
10:30 PM55 °FPartly cloudy.40 mph88%29.59 "Hg2 mi
10:02 PM55 °FPassing clouds.39 mph88%29.59 "Hg2 mi
10:00 PM55 °FPassing clouds.38 mph88%29.59 "Hg5 mi
9:30 PM55 °FPassing clouds.40 mph88%29.59 "HgN/A
9:00 PM57 °FPassing clouds.38 mph82%29.59 "HgN/A
8:30 PM57 °FPassing clouds.37 mph82%29.59 "HgN/A
8:00 PM57 °FPassing clouds.36 mph77%29.56 "HgN/A
7:30 PM57 °FPassing clouds.37 mph82%29.59 "HgN/A
7:00 PM57 °FPassing clouds.40 mph82%29.59 "HgN/A
6:30 PM59 °FPassing clouds.40 mph72%29.59 "HgN/A
6:00 PM59 °FPartly sunny.35 mph72%29.59 "HgN/A
5:30 PM59 °FPartly sunny.37 mph72%29.59 "HgN/A
5:00 PM59 °FPartly sunny.29 mph72%29.59 "HgN/A
4:30 PM57 °FPartly sunny.17 mph77%29.59 "HgN/A
4:00 PM55 °FPartly sunny.13 mph77%29.59 "HgN/A
3:30 PM52 °FPartly sunny.14 mph88%29.62 "HgN/A
3:00 PM52 °FPartly sunny.15 mph88%29.62 "HgN/A
2:30 PM50 °FLight rain. Overcast.15 mph88%29.68 "Hg3 mi
2:00 PM54 °FLight rain. Fog.17 mph72%29.71 "Hg2 mi
Weather by CustomWeather, © 2014

See weather overviewHow to use our weather pages